Weather History for Jonesboro, AR

Change the Weather History Date:

Friday, July 19, 2013

  Actual Average Record
Temperature  
Mean Temperature 81 °F 81 °F  
Max Temperature 91 °F 91 °F 105 °F (2012)
Min Temperature 71 °F 71 °F 58 °F (1945)
Degree Days  
Heating Degree Days 0 0  
Month to date heating degree days 0 0  
Since 1 June heating degree days 0 1  
Since 1 July heating degree days 0 0  
Cooling Degree Days 16 16  
Month to date cooling degree days 291 303  
Year to date cooling degree days 970 899  
Since 1 June cooling degree days 740 686  
Growing Degree Days 31 (Base 50)    
Moisture  
Dew Point 71 °F    
Average Humidity 75    
Maximum Humidity 100    
Minimum Humidity 49    
Precipitation  
Precipitation 0.00 in 0.10 in 1.73 in (1937)
Month to date precipitation 0.30 2.40  
Year to date precipitation 30.64 27.43  
Snow  
Snow 0.00 in 0.00 in - ()
Month to date snowfall 0.0 0.0  
Since 1 June snowfall 0.0 0.0  
Since 1 July snowfall 0.0 0.0  
Snow Depth 0.00 in    
Sea Level Pressure  
Sea Level Pressure 30.02 in    
Wind  
Wind Speed 5 mph (South)    
Max Wind Speed 12 mph    
Max Gust Speed 15 mph    
Visibility 7 miles    
Events Fog    
T = Trace of Precipitation, MM = Missing Value Source: NWS Daily Summary

Daily Weather History Graph

Daily Weather History Graph

Search for Another Location

Airport:

Trip Planner

Search our weather history database for the weather conditions in past years. The results will help you decide how hot, cold, wet, or windy it might be!

Date:

Astronomy

Jul. 19, 2013 Rise Set
Actual Time 6:00 AM CDT 8:16 PM CDT
Civil Twilight 5:31 AM CDT 8:45 PM CDT
Nautical Twilight 4:55 AM CDT 9:21 PM CDT
Astronomical Twilight 4:17 AM CDT 10:00 PM CDT
Moon 5:19 PM CDT (7/19) 2:41 AM CDT (7/19)
Length of Visible Light 15h 14m
Length of Day
14h 15m
Waxing Gibbous, 87% of the Moon is Illuminated
Jul 19
Waxing Gibbous
Jul 22
Full
Jul 29
Last Quarter
Aug 6
New
Aug 14
First Quarter

Hourly Weather History & Observations

Time (CDT) Temp. Heat Index Dew Point Humidity Pressure Visibility Wind Dir Wind Speed Gust Speed Precip Events Conditions
12:53 AM 73.0 °F - 71.1 °F 93% 30.05 in 7.0 mi Calm Calm - N/A   Clear
1:21 AM 73.4 °F - 71.6 °F 94% 30.06 in 7.0 mi SW 6.9 mph - N/A   Scattered Clouds
1:30 AM 73.4 °F - 71.6 °F 94% 30.06 in 6.0 mi WSW 5.8 mph - N/A   Mostly Cloudy
1:53 AM 73.0 °F - 71.1 °F 93% 30.05 in 6.0 mi West 3.5 mph - N/A   Scattered Clouds
2:53 AM 72.0 °F - 70.0 °F 93% 30.04 in 8.0 mi Calm Calm - N/A   Partly Cloudy
3:53 AM 71.1 °F - 69.1 °F 93% 30.04 in 5.0 mi Calm Calm - N/A   Mostly Cloudy
4:22 AM 71.6 °F - 69.8 °F 94% 30.04 in 4.0 mi Calm Calm - N/A   Overcast
4:53 AM 72.0 °F - 70.0 °F 93% 30.04 in 4.0 mi Calm Calm - N/A   Overcast
5:19 AM 71.6 °F - 69.8 °F 94% 30.04 in 5.0 mi Calm Calm - N/A   Scattered Clouds
5:53 AM 72.0 °F - 70.0 °F 93% 30.05 in 7.0 mi SSE 3.5 mph - N/A   Clear
6:19 AM 71.6 °F - 69.8 °F 94% 30.06 in 5.0 mi SE 4.6 mph - 0.01 in   Scattered Clouds
6:28 AM 71.6 °F - 69.8 °F 94% 30.06 in 4.0 mi SSE 4.6 mph - 0.01 in   Mostly Cloudy
6:44 AM 71.6 °F - 71.6 °F 100% 30.06 in 1.5 mi SSE 5.8 mph - 0.01 in   Overcast
6:49 AM 71.6 °F - 71.6 °F 100% 30.06 in 0.5 mi SSE 3.5 mph - 0.01 in Fog Fog
6:53 AM 72.0 °F - 71.1 °F 97% 30.06 in 0.5 mi SSE 4.6 mph - 0.01 in Fog Fog
6:57 AM 71.6 °F - 71.6 °F 100% 30.06 in 1.0 mi SSE 4.6 mph - N/A   Overcast
7:04 AM 73.4 °F - 71.6 °F 94% 30.07 in 3.0 mi SSE 3.5 mph - N/A   Overcast
7:40 AM 73.4 °F - 71.6 °F 94% 30.07 in 8.0 mi South 4.6 mph - N/A   Overcast
7:53 AM 73.9 °F - 71.1 °F 91% 30.06 in 9.0 mi South 5.8 mph - N/A   Overcast
8:53 AM 75.9 °F - 70.0 °F 82% 30.06 in 10.0 mi SSE 3.5 mph - N/A   Scattered Clouds
9:53 AM 78.1 °F - 71.1 °F 79% 30.06 in 10.0 mi SSE 4.6 mph - N/A   Scattered Clouds
10:02 AM 80.6 °F 84.6 °F 71.6 °F 74% 30.07 in 10.0 mi Variable 3.5 mph - N/A   Mostly Cloudy
10:35 AM 80.6 °F 84.6 °F 71.6 °F 74% 30.06 in 10.0 mi SE 5.8 mph - N/A   Scattered Clouds
10:53 AM 82.0 °F 86.3 °F 71.1 °F 69% 30.05 in 10.0 mi South 5.8 mph - N/A   Partly Cloudy
11:53 AM 84.9 °F 89.4 °F 70.0 °F 61% 30.04 in 10.0 mi South 6.9 mph - N/A   Scattered Clouds
12:53 PM 87.1 °F 92.0 °F 70.0 °F 57% 30.02 in 10.0 mi SSW 5.8 mph - N/A   Partly Cloudy
1:53 PM 89.1 °F 95.0 °F 71.1 °F 55% 29.99 in 10.0 mi SSE 8.1 mph - N/A   Partly Cloudy
2:53 PM 89.1 °F 94.1 °F 70.0 °F 53% 29.96 in 10.0 mi Variable 6.9 mph - N/A   Partly Cloudy
3:53 PM 90.0 °F 95.4 °F 70.0 °F 52% 29.95 in 10.0 mi SSE 8.1 mph - N/A   Partly Cloudy
4:53 PM 91.0 °F 96.6 °F 70.0 °F 50% 29.94 in 10.0 mi South 6.9 mph - N/A   Partly Cloudy
5:53 PM 89.1 °F 94.1 °F 70.0 °F 53% 29.93 in 10.0 mi South 5.8 mph - N/A   Clear
6:53 PM 87.1 °F 92.0 °F 70.0 °F 57% 29.93 in 10.0 mi South 9.2 mph - N/A   Partly Cloudy
7:53 PM 84.9 °F 90.1 °F 71.1 °F 63% 29.93 in 10.0 mi SSW 8.1 mph - N/A   Clear
8:53 PM 82.9 °F 87.5 °F 71.1 °F 67% 29.93 in 10.0 mi SSW 4.6 mph - N/A   Clear
9:53 PM 82.0 °F 86.3 °F 71.1 °F 69% 29.94 in 10.0 mi SSW 6.9 mph - N/A   Clear
10:53 PM 79.0 °F - 71.1 °F 77% 29.95 in 10.0 mi Calm Calm - N/A   Clear
11:53 PM 75.0 °F - 71.1 °F 87% 29.94 in 10.0 mi Calm Calm - N/A   Clear